User: anonymous   Login
Location: Copper Breaks State Park
(34.1132°N, 99.7492°W)
Time: 03:00:40
(UTC-05:00)
Language:

SL-16 R/B - Orbit

View from above orbital plane
View from above orbital plane
View from above satellite
View from above satellite

Ground track
Ground track

The orbit data is extracted from the following two-line orbital elements,

1 27006U 01056F   16237.48297280 -.00000004  00000-0  43285-4 0  9997
2 27006  99.2692  22.4938 0014665   7.0560  34.7307 13.70971713735842
Epoch (UTC): 24 August 2016 11:35:28
Eccentricity: 0.0014665
inclination: 99.2692°
perigee height: 985 km
apogee height: 1007 km
right ascension of ascending node: 22.4938°
argument of perigee: 7.0560°
revolutions per day: 13.70971713
mean anomaly at epoch: 34.7307°
orbit number at epoch: 73584

The dashed part of the orbit path shows where the satellite is in the earth's shadow,  

DLR